TimeCDT,TemperatureF,Dew PointF,Humidity,Sea Level PressureIn,VisibilityMPH,Wind Direction,Wind SpeedMPH,Gust SpeedMPH,PrecipitationIn,Events,Conditions,WindDirDegrees,DateUTC
12:52 AM,39.0,34.0,82,30.32,10.0,NNE,3.5,-,N/A,,Clear,20,2012-10-06 05:52:00
1:52 AM,39.0,34.0,82,30.32,10.0,Calm,Calm,-,N/A,,Clear,0,2012-10-06 06:52:00
2:52 AM,39.0,34.0,82,30.33,10.0,North,6.9,-,N/A,,Clear,360,2012-10-06 07:52:00
3:52 AM,39.9,35.1,83,30.30,10.0,Calm,Calm,-,N/A,,Clear,0,2012-10-06 08:52:00
4:52 AM,43.0,36.0,76,30.28,10.0,Calm,Calm,-,0.00,Rain,Light Rain,0,2012-10-06 09:52:00
5:52 AM,39.9,37.0,89,30.28,10.0,Calm,Calm,-,0.00,,Overcast,0,2012-10-06 10:52:00
7:52 AM,43.0,37.9,82,30.30,10.0,North,4.6,-,N/A,,Overcast,350,2012-10-06 12:52:00
8:52 AM,44.1,37.9,79,30.33,10.0,NW,3.5,-,N/A,,Overcast,320,2012-10-06 13:52:00
9:52 AM,45.0,37.9,76,30.35,10.0,NNW,3.5,-,N/A,,Overcast,330,2012-10-06 14:52:00
10:52 AM,48.0,36.0,63,30.35,10.0,NNE,3.5,-,N/A,,Overcast,20,2012-10-06 15:52:00
11:52 AM,48.0,32.0,54,30.37,10.0,NNE,4.6,-,N/A,,Overcast,20,2012-10-06 16:52:00
12:52 PM,50.0,30.0,46,30.36,10.0,North,5.8,-,N/A,,Overcast,10,2012-10-06 17:52:00
1:52 PM,48.9,28.0,44,30.34,10.0,North,10.4,-,N/A,,Overcast,10,2012-10-06 18:52:00
2:52 PM,48.0,28.0,46,30.32,10.0,North,11.5,-,N/A,,Overcast,10,2012-10-06 19:52:00
3:52 PM,46.9,30.0,52,30.32,10.0,North,8.1,-,N/A,,Overcast,10,2012-10-06 20:52:00
4:52 PM,48.9,28.9,46,30.30,10.0,Calm,Calm,-,N/A,,Overcast,0,2012-10-06 21:52:00
6:52 PM,46.9,30.0,52,30.32,10.0,North,5.8,-,N/A,,Overcast,350,2012-10-06 23:52:00
7:52 PM,46.0,28.9,51,30.33,10.0,NNW,6.9,-,N/A,,Overcast,330,2012-10-07 00:52:00
8:52 PM,45.0,25.0,46,30.34,10.0,North,8.1,-,N/A,,Overcast,350,2012-10-07 01:52:00
9:52 PM,45.0,24.1,44,30.34,10.0,North,8.1,-,N/A,,Overcast,360,2012-10-07 02:52:00
10:52 PM,43.0,27.0,53,30.34,10.0,North,3.5,-,N/A,,Overcast,350,2012-10-07 03:52:00